| time (UTC) | temp C | wind direction | speed KPH | gust KPH | rain 1hr cm | rain 24hr cm | rain mn cm | humidity % | barometer mb |
| 20260504221952 | 27 | 153 | 0.0 | 4.8 | 0.00 | 0.00 | 0.00 | 64 | |
| 20260504214950 | 27 | 149 | 1.6 | 3.2 | 0.00 | 0.00 | 0.00 | 62 | |
| 20260504211947 | 28 | 147 | 0.0 | 4.8 | 0.00 | 0.00 | 0.00 | 60 | |
| 20260504204942 | 27 | 109 | 3.2 | 3.2 | 0.00 | 0.00 | 0.00 | 60 | |
| 20260504201937 | 28 | 162 | 3.2 | 8.0 | 0.00 | 0.00 | 0.00 | 60 | |
| 20260504194936 | 27 | 136 | 3.2 | 4.8 | 0.00 | 0.00 | 0.00 | 61 | |
| 20260504191931 | 28 | 192 | 8.0 | 12.9 | 0.00 | 0.00 | 0.00 | 59 | |
| 20260504184927 | 27 | 23 | 4.8 | 12.9 | 0.00 | 0.00 | 0.00 | 60 | |
| 20260504181926 | 27 | 174 | 3.2 | 4.8 | 0.00 | 0.00 | 0.00 | 59 | |
| 20260504174924 | 26 | 198 | 3.2 | 9.7 | 0.00 | 0.00 | 0.00 | 61 | |
| 20260504171922 | 26 | 65 | 3.2 | 9.7 | 0.00 | 0.00 | 0.00 | 63 | |
| 20260504081840 | 15 | 143 | 0.0 | 0.0 | 0.00 | 0.00 | 0.00 | 87 | |
| 20260504044823 | 16 | 137 | 0.0 | 0.0 | 0.00 | 0.00 | 0.00 | 76 | |
| 20260504041822 | 17 | 139 | 0.0 | 1.6 | 0.00 | 0.00 | 0.00 | 73 | |
| 20260504034820 | 17 | 132 | 0.0 | 1.6 | 0.00 | 0.00 | 0.00 | 73 | |
| 20260504031821 | 17 | 146 | 0.0 | 1.6 | 0.00 | 0.00 | 0.00 | 70 | |
| 20260504024819 | 18 | 125 | 0.0 | 1.6 | 0.00 | 0.00 | 0.00 | 68 | |
| 20260504021815 | 19 | 134 | 0.0 | 0.0 | 0.00 | 0.00 | 0.00 | 64 | |
| 20260504014813 | 20 | 136 | 0.0 | 0.0 | 0.00 | 0.00 | 0.00 | 58 | |
| 20260504011808 | 20 | 117 | 0.0 | 0.0 | 0.00 | 0.00 | 0.00 | 60 | |
| 20260504004804 | 22 | 132 | 0.0 | 0.0 | 0.00 | 0.00 | 0.00 | 54 | |
| 20260504001803 | 24 | 133 | 1.6 | 1.6 | 0.00 | 0.00 | 0.00 | 45 | |
| 20260503234758 | 25 | 128 | 1.6 | 1.6 | 0.00 | 0.00 | 0.00 | 42 | |
| 20260503231753 | 26 | 137 | 3.2 | 8.0 | 0.00 | 0.00 | 0.00 | 40 | |
| 20260503224748 | 27 | 127 | 1.6 | 3.2 | 0.00 | 0.00 | 0.00 | 38 |